Date String (YYYY-MM-DD hh:mm:ss) UTC,Instrument flags,Ambient pressure (hPa),Sample flow (lpm),Bypass flow (lpm),Sample temperature (°C),Ambient temperature (°C),ASC tube jacket temperature (°C),LED temperature (°C),Box temperature (°C),Sample RH (%),Span deviation,Mass concentration (μg/m³),Mass concentration (μg/m³),Mass concentration (μg/m³)
DateTimeUTC,F1_M11,P_M11,Q1_M11,Q2_M11,T1_M11,T2_M11,T3_M11,T4_M11,T5_M11,U1_M11,ZSPAN_M11,X2_M11,X0_M11,X1_M11
2023-04-27 14:00:00,,0825.5,5.00,0.00,24.1,22.8,00.0,32.4,25.7,21.4,0000.0,0003.25,0007.86,0002.06
2023-04-27 14:01:00,,0825.5,5.00,0.00,24.2,22.8,00.0,32.4,25.7,22.7,0000.0,0003.30,0007.87,0002.18
2023-04-27 14:02:00,,0825.6,5.00,0.00,24.2,22.8,00.0,32.4,25.8,23.6,0000.0,0003.42,0007.82,0002.33
2023-04-27 14:03:00,,0825.6,5.01,0.00,24.2,22.9,00.0,32.4,25.8,23.3,0000.0,0003.53,0007.73,0002.45
2023-04-27 14:04:00,,0825.6,5.01,0.00,24.2,22.9,00.0,32.4,25.8,23.2,0000.0,0003.65,0008.71,0002.57
2023-04-27 14:05:00,,0825.5,5.01,0.00,24.2,22.9,00.0,32.5,25.8,23.2,0000.0,0003.76,0008.90,0002.71
2023-04-27 14:06:00,,0825.5,5.00,0.00,24.2,22.9,00.0,32.5,25.9,23.7,0000.0,0003.88,0009.78,0002.84
2023-04-27 14:07:00,,0825.5,4.99,0.00,24.2,23.0,00.0,32.5,25.9,22.7,0000.0,0004.00,0011.43,0002.96
2023-04-27 14:08:00,,0825.5,5.00,0.00,24.2,23.0,00.0,32.5,25.9,21.9,0000.0,0004.10,0011.79,0003.06
2023-04-27 14:09:00,,0825.6,5.00,0.00,24.3,23.0,00.0,32.5,25.9,22.6,0000.0,0004.19,0012.01,0003.14
2023-04-27 14:10:00,,0825.5,5.00,0.00,24.3,23.0,00.0,32.5,25.9,20.6,0000.0,0004.22,0012.10,0003.17
2023-04-27 14:11:00,,0825.4,5.00,0.00,24.3,23.0,00.0,32.5,26.0,19.7,0000.0,0004.18,0011.73,0003.16
2023-04-27 14:12:00,,0825.4,5.00,0.00,24.3,23.0,00.0,32.5,25.9,16.4,0000.0,0004.08,0011.63,0003.11
2023-04-27 14:13:00,,0825.4,5.00,0.00,24.3,23.1,00.0,32.5,26.0,16.2,0000.0,0003.95,0011.45,0003.00
2023-04-27 14:14:00,,0825.5,4.99,0.00,24.3,23.1,00.0,32.6,26.0,14.1,0000.0,0003.84,0011.67,0002.87
2023-04-27 14:15:00,,0825.5,5.00,0.00,24.3,23.1,00.0,32.6,26.0,16.7,0000.0,0003.75,0011.12,0002.77
2023-04-27 14:16:00,,0825.6,5.00,0.00,24.4,23.1,00.0,32.6,26.0,17.8,0000.0,0003.65,0010.80,0002.67
2023-04-27 14:17:00,,0825.6,4.99,0.00,24.4,23.1,00.0,32.6,26.0,20.3,0000.0,0003.60,0010.26,0002.59
2023-04-27 14:18:00,,0825.6,5.00,0.00,24.4,23.2,00.0,32.6,26.1,16.2,0000.0,0003.51,0008.59,0002.50
2023-04-27 14:19:00,,0825.6,5.00,0.00,24.4,23.2,00.0,32.6,26.1,16.4,0000.0,0003.41,0007.81,0002.41
2023-04-27 14:20:00,,0825.5,5.01,0.00,24.4,23.2,00.0,32.6,26.1,16.7,0000.0,0003.32,0007.52,0002.31
2023-04-27 14:21:00,,0825.5,5.00,0.00,24.4,23.2,00.0,32.7,26.1,14.7,0000.0,0003.25,0007.24,0002.21
2023-04-27 14:22:00,,0825.6,5.01,0.00,24.5,23.2,00.0,32.7,26.1,17.6,0000.0,0003.18,0007.12,0002.17
2023-04-27 14:23:00,,0825.6,5.00,0.00,24.5,23.2,00.0,32.7,26.1,18.6,0000.0,0003.22,0007.44,0002.17
2023-04-27 14:24:00,,0825.6,5.00,0.00,24.5,23.3,00.0,32.7,26.1,17.7,0000.0,0003.25,0008.16,0002.18
2023-04-27 14:25:00,,0825.5,5.00,0.00,24.5,23.3,00.0,32.7,26.2,17.3,0000.0,0003.31,0008.07,0002.22
2023-04-27 14:26:00,,0825.6,5.00,0.00,24.5,23.3,00.0,32.7,26.2,15.4,0000.0,0003.30,0007.68,0002.22
2023-04-27 14:27:00,,0825.4,5.00,0.00,24.5,23.3,00.0,32.7,26.2,15.3,0000.0,0003.30,0007.79,0002.19
2023-04-27 14:28:00,,0825.5,5.00,0.00,24.5,23.3,00.0,32.8,26.2,15.3,0000.0,0003.25,0007.72,0002.15
2023-04-27 14:29:00,,0825.5,5.00,0.00,24.6,23.3,00.0,32.8,26.2,14.7,0000.0,0003.24,0008.05,0002.13
2023-04-27 14:30:00,,0825.5,5.00,0.00,24.6,23.3,00.0,32.8,26.3,13.6,0000.0,0003.22,0008.38,0002.10
2023-04-27 14:31:00,,0825.5,5.00,0.00,24.6,23.3,00.0,32.8,26.3,13.9,0000.0,0003.21,0008.42,0002.08
2023-04-27 14:32:00,,0825.5,5.00,0.00,24.6,23.4,00.0,32.8,26.3,14.6,0000.0,0003.22,0008.50,0002.07
2023-04-27 14:33:00,,0825.5,5.00,0.00,24.6,23.4,00.0,32.8,26.3,14.7,0000.0,0003.24,0008.51,0002.05
2023-04-27 14:34:00,,0825.5,5.01,0.00,24.6,23.4,00.0,32.8,26.3,14.9,0000.0,0003.24,0008.25,0002.01
2023-04-27 14:35:00,,0825.5,5.01,0.00,24.7,23.4,00.0,32.9,26.3,13.5,0000.0,0003.23,0007.69,0001.98
2023-04-27 14:36:00,,0825.4,5.00,0.00,24.7,23.5,00.0,32.9,26.3,13.0,0000.0,0003.17,0008.15,0001.93
2023-04-27 14:37:00,,0825.4,5.01,0.00,24.7,23.5,00.0,32.9,26.3,13.8,0000.0,0003.19,0008.20,0001.90
2023-04-27 14:38:00,,0825.4,5.00,0.00,24.7,23.5,00.0,32.9,26.4,14.1,0000.0,0003.19,0008.10,0001.89
2023-04-27 14:39:00,,0825.5,5.00,0.00,24.7,23.5,00.0,32.9,26.4,13.6,0000.0,0003.17,0008.63,0001.89
2023-04-27 14:40:00,,0825.5,5.00,0.00,24.7,23.5,00.0,32.9,26.4,13.3,0000.0,0003.13,0008.97,0001.88
2023-04-27 14:41:00,,0825.5,5.00,0.00,24.7,23.6,00.0,33.0,26.4,13.9,0000.0,0003.10,0008.62,0001.89
2023-04-27 14:42:00,,0825.5,5.00,0.00,24.8,23.6,00.0,33.0,26.4,14.1,0000.0,0003.04,0008.48,0001.90
2023-04-27 14:43:00,,0825.5,5.00,0.00,24.8,23.6,00.0,33.0,26.5,14.6,0000.0,0002.97,0008.28,0001.90
2023-04-27 14:44:00,,0825.5,5.00,0.00,24.8,23.6,00.0,33.0,26.5,14.1,0000.0,0002.91,0008.57,0001.89
2023-04-27 14:45:00,,0825.4,5.00,0.00,24.8,23.6,00.0,33.0,26.5,14.4,0000.0,0002.81,0008.73,0001.89
2023-04-27 14:46:00,,0825.5,5.00,0.00,24.9,23.7,00.0,33.0,26.5,15.7,0000.0,0002.75,0008.64,0001.89
2023-04-27 14:47:00,,0825.5,4.99,0.00,24.9,23.7,00.0,33.0,26.5,15.1,0000.0,0002.76,0008.09,0001.91
2023-04-27 14:48:00,,0825.5,5.00,0.00,24.9,23.7,00.0,33.1,26.5,14.8,0000.0,0002.76,0008.16,0001.91
2023-04-27 14:49:00,,0825.5,5.00,0.00,24.9,23.7,00.0,33.1,26.6,14.4,0000.0,0002.81,0008.26,0001.93
2023-04-27 14:50:00,,0825.5,5.00,0.00,24.9,23.7,00.0,33.1,26.6,14.4,0000.0,0002.88,0007.73,0001.93
2023-04-27 14:51:00,,0825.5,5.00,0.00,24.9,23.8,00.0,33.1,26.6,14.1,0000.0,0003.00,0007.27,0001.94
2023-04-27 14:52:00,,0825.5,5.00,0.00,25.0,23.8,00.0,33.1,26.6,13.7,0000.0,0003.01,0007.16,0001.93
2023-04-27 14:53:00,,0825.5,5.00,0.00,25.0,23.8,00.0,33.2,26.6,14.5,0000.0,0002.98,0007.32,0001.92
2023-04-27 14:54:00,,0825.5,5.00,0.00,25.0,23.8,00.0,33.2,26.6,15.1,0000.0,0003.03,0007.51,0001.93
2023-04-27 14:55:00,,0825.5,5.01,0.00,25.0,23.8,00.0,33.2,26.7,14.6,0000.0,0003.05,0007.19,0001.95
2023-04-27 14:56:00,,0825.5,5.00,0.00,25.0,23.8,00.0,33.2,26.7,16.0,0000.0,0003.08,0007.39,0001.98
2023-04-27 14:57:00,,0825.5,5.00,0.00,25.0,23.9,00.0,33.2,26.7,15.5,0000.0,0003.11,0007.47,0001.98
2023-04-27 14:58:00,,0825.6,5.00,0.00,25.1,23.9,00.0,33.2,26.7,16.6,0000.0,0003.13,0007.42,0002.00
2023-04-27 14:59:00,,0825.6,5.00,0.00,25.1,23.9,00.0,33.3,26.7,14.9,0000.0,0003.11,0007.30,0002.02
